ProjectID,Date,Electric Generation,Electric Utility Import,Facility Electric Load
,YYYY-MM-DD,kW,kW,kW
6,2004-06-01,0.0,,0.0
6,2004-06-02,0.0,,0.0
6,2004-06-03,0.0,,0.0
6,2004-06-04,0.0,,0.0
6,2004-06-05,0.0,,0.0
6,2004-06-06,0.0,,0.0
6,2004-06-07,0.0,,0.0
6,2004-06-08,0.0,,0.0
6,2004-06-09,0.0,,0.0
6,2004-06-10,0.0,,0.0
6,2004-06-11,0.0,,0.0
6,2004-06-12,0.0,,0.0
6,2004-06-13,0.0,,0.0
6,2004-06-14,0.0,,0.0
6,2004-06-15,0.0,,0.0
6,2004-06-16,0.0,,0.0
6,2004-06-17,0.0,,0.0
6,2004-06-18,0.0,,0.0
6,2004-06-19,0.0,,0.0
6,2004-06-20,0.0,,0.0
6,2004-06-21,0.0,,0.0
6,2004-06-22,0.0,,0.0
6,2004-06-23,0.0,0.0,0.0
6,2004-06-24,0.09895833333333333,-1.275,-1.1760416666666667
6,2004-06-25,2.4114583333333335,-1.0354166666666667,1.3760416666666668
6,2004-06-26,2.402083333333333,-0.9489583333333332,1.453125
6,2004-06-27,2.44375,-1.0718750000000001,1.371875
6,2004-06-28,2.475,-1.0385416666666667,1.4364583333333334
6,2004-06-29,2.4760416666666667,-1.078125,1.3979166666666667
6,2004-06-30,2.4614583333333333,-1.0583333333333333,1.403125
6,2004-07-01,2.439583333333333,-1.0885416666666667,1.3510416666666665
6,2004-07-02,2.4739583333333335,-1.0458333333333334,1.428125
6,2004-07-03,2.478125,-1.1208333333333333,1.3572916666666666
6,2004-07-04,2.4770833333333333,-1.0666666666666667,1.4104166666666667
6,2004-07-05,2.448958333333333,-0.990625,1.458333333333333
6,2004-07-06,2.396875,-1.0677083333333333,1.3291666666666668
6,2004-07-07,2.4520833333333334,-0.8927083333333333,1.5593750000000002
6,2004-07-08,2.4125,-0.8927083333333333,1.5197916666666669
6,2004-07-09,2.44375,-1.1187500000000001,1.325
6,2004-07-10,2.3677083333333333,-1.0697916666666667,1.2979166666666666
6,2004-07-11,2.3427083333333334,-0.7687499999999999,1.5739583333333336
6,2004-07-12,2.3677083333333333,-0.8177083333333334,1.5499999999999998
6,2004-07-13,2.3406249999999997,-0.8010416666666668,1.5395833333333329
6,2004-07-14,2.423958333333333,-1.3791666666666667,1.0447916666666666
6,2004-07-15,2.390625,-1.1885416666666666,1.2020833333333334
6,2004-07-16,2.4635416666666665,-1.0374999999999999,1.4260416666666667
6,2004-07-17,2.2531250000000003,-0.74375,1.5093750000000004
6,2004-07-18,2.4385416666666666,-1.0760416666666666,1.3625
6,2004-07-19,2.359375,-0.8468749999999999,1.5125000000000002
6,2004-07-20,2.408333333333333,-0.9145833333333333,1.49375
6,2004-07-21,2.3072916666666665,-0.5666666666666667,1.7406249999999999
6,2004-07-22,2.4166666666666665,-0.6083333333333333,1.8083333333333331
6,2004-07-23,2.4406250000000003,-0.796875,1.6437500000000003
6,2004-07-24,2.472916666666667,-0.8989583333333333,1.5739583333333336
6,2004-07-25,2.446875,-0.8604166666666666,1.5864583333333333
6,2004-07-26,2.3697916666666665,-0.884375,1.4854166666666666
6,2004-07-27,2.4406250000000003,-0.8760416666666666,1.5645833333333337
6,2004-07-28,2.3854166666666665,-0.884375,1.5010416666666666
6,2004-07-29,2.392708333333333,-0.6885416666666666,1.7041666666666666
6,2004-07-30,2.341666666666667,-0.765625,1.5760416666666668
6,2004-07-31,2.357291666666667,-0.6020833333333333,1.7552083333333335
6,2004-08-01,2.4854166666666666,-0.6760416666666668,1.8093749999999997
6,2004-08-02,2.3760416666666666,-0.665625,1.7104166666666667
6,2004-08-03,2.267708333333333,-0.5385416666666667,1.7291666666666665
6,2004-08-04,2.328125,-0.9125,1.415625
6,2004-08-05,2.4270833333333335,-1.0145833333333334,1.4125
6,2004-08-06,2.3895833333333334,-1.0114583333333333,1.378125
6,2004-08-07,2.4458333333333333,-1.05,1.3958333333333333
6,2004-08-08,2.2760416666666665,-0.8666666666666667,1.4093749999999998
6,2004-08-09,2.4114583333333335,-0.9020833333333332,1.5093750000000004
6,2004-08-10,2.377083333333333,-0.8010416666666668,1.5760416666666663
6,2004-08-11,2.4718750000000003,-0.9395833333333333,1.532291666666667
6,2004-08-12,2.4385416666666666,-0.94375,1.4947916666666665
6,2004-08-13,2.415625,-0.9052083333333334,1.5104166666666665
6,2004-08-14,2.439583333333333,-0.8979166666666667,1.5416666666666665
6,2004-08-15,2.3604166666666666,-0.7604166666666666,1.6
6,2004-08-16,2.3114583333333334,-0.9479166666666666,1.3635416666666669
6,2004-08-17,2.470833333333333,-0.96875,1.5020833333333332
6,2004-08-18,2.3874999999999997,-0.8010416666666668,1.5864583333333329
6,2004-08-19,1.15625,0.36041666666666666,1.5166666666666666
6,2004-08-20,2.480208333333333,-1.0833333333333333,1.3968749999999999
6,2004-08-21,2.426041666666667,-0.9927083333333333,1.4333333333333336
6,2004-08-22,2.3760416666666666,-1.0729166666666667,1.3031249999999999
6,2004-08-23,2.388541666666667,-1.0645833333333334,1.3239583333333333
6,2004-08-24,2.3854166666666665,-1.0270833333333333,1.3583333333333332
6,2004-08-25,2.4,-1.0729166666666667,1.3270833333333332
6,2004-08-26,2.417708333333333,-0.9979166666666667,1.4197916666666663
6,2004-08-27,2.4208333333333334,-0.8197916666666667,1.6010416666666667
6,2004-08-28,2.3364583333333333,-0.6229166666666667,1.7135416666666665
6,2004-08-29,2.417708333333333,-0.8729166666666667,1.5447916666666663
6,2004-08-30,2.386458333333333,-1.015625,1.3708333333333331
6,2004-08-31,2.277083333333333,-1.0229166666666667,1.2541666666666664
6,2004-09-01,2.439583333333333,-1.015625,1.4239583333333332
6,2004-09-02,2.4854166666666666,-1.0520833333333333,1.4333333333333333
6,2004-09-03,2.453125,-0.9458333333333333,1.5072916666666667
6,2004-09-04,2.4270833333333335,-1.015625,1.4114583333333335
6,2004-09-05,2.386458333333333,-0.8989583333333333,1.4874999999999998
6,2004-09-06,2.4125,-0.9500000000000001,1.4625
6,2004-09-07,2.4479166666666665,-0.9083333333333333,1.5395833333333333
6,2004-09-08,2.4656249999999997,-1.0541666666666667,1.411458333333333
6,2004-09-09,2.4291666666666667,-0.9114583333333334,1.5177083333333332
6,2004-09-10,2.4052083333333334,-1.0552083333333333,1.35
6,2004-09-11,2.388541666666667,-1.0385416666666667,1.35
6,2004-09-12,2.441666666666667,-1.0020833333333334,1.4395833333333334
6,2004-09-13,2.3781250000000003,-1.0020833333333334,1.3760416666666668
6,2004-09-14,2.3916666666666666,-0.8916666666666666,1.5
6,2004-09-15,2.341666666666667,-0.8708333333333332,1.4708333333333337
6,2004-09-16,2.415625,-0.959375,1.4562499999999998
6,2004-09-17,2.4302083333333333,-0.9208333333333334,1.509375
6,2004-09-18,2.4604166666666667,-1.0895833333333333,1.3708333333333333
6,2004-09-19,2.4916666666666667,-1.0260416666666667,1.465625
6,2004-09-20,2.5072916666666667,-0.8583333333333334,1.6489583333333333
6,2004-09-21,2.551041666666667,-0.9614583333333333,1.5895833333333336
6,2004-09-22,2.3989583333333333,-0.7208333333333333,1.678125
6,2004-09-23,2.326041666666667,-0.9645833333333332,1.3614583333333337
6,2004-09-24,2.4270833333333335,-0.9656250000000001,1.4614583333333333
6,2004-09-25,1.9437499999999999,-1.0510416666666667,0.8927083333333332
6,2004-09-26,2.216666666666667,-1.6010416666666665,0.6156250000000003
6,2004-09-27,1.6270833333333332,-1.7864583333333333,-0.15937500000000004
6,2004-09-28,1.6697916666666668,-1.7,-0.03020833333333317
6,2004-09-29,1.6791666666666665,-1.7197916666666666,-0.04062500000000013
6,2004-09-30,1.6479166666666665,-1.7354166666666666,-0.08750000000000013
6,2004-10-01,1.925,-1.6187500000000001,0.3062499999999999
6,2004-10-02,0.8135416666666666,-0.36874999999999997,0.44479166666666664
6,2004-10-03,0.3625,0.35520833333333335,0.7177083333333334
6,2004-10-04,1.7385416666666667,-1.5614583333333334,0.17708333333333326
6,2004-10-05,2.0989583333333335,-2.3802083333333335,-0.28125
6,2004-10-06,2.670833333333333,-3.013541666666667,-0.34270833333333384
6,2004-10-07,2.1885416666666666,-2.497916666666667,-0.3093750000000002
6,2004-10-08,1.7291666666666667,-1.7729166666666665,-0.043749999999999734
6,2004-10-09,1.6958333333333335,-1.7104166666666665,-0.014583333333332948
6,2004-10-10,1.7177083333333334,-1.6937499999999999,0.023958333333333526
6,2004-10-11,1.6968750000000001,-1.4770833333333335,0.2197916666666666
6,2004-10-12,1.6729166666666666,-1.6500000000000001,0.022916666666666474
6,2004-10-13,1.6822916666666667,-1.59375,0.08854166666666674
6,2004-10-14,1.690625,-1.7645833333333334,-0.07395833333333335
6,2004-10-15,1.7645833333333334,-1.8114583333333334,-0.046875
6,2004-10-16,1.753125,-1.5854166666666665,0.16770833333333357
6,2004-10-17,1.7854166666666667,-1.5583333333333333,0.2270833333333333
6,2004-10-18,1.7874999999999999,-1.6270833333333332,0.16041666666666665
6,2004-10-19,2.1218749999999997,-1.5177083333333332,0.6041666666666665
6,2004-10-20,2.50625,-1.7364583333333332,0.7697916666666669
6,2004-10-21,2.3739583333333334,-1.7833333333333332,0.5906250000000002
6,2004-10-22,2.365625,-1.5729166666666667,0.7927083333333333
6,2004-10-23,2.5083333333333333,-1.1239583333333334,1.384375
6,2004-10-24,2.43125,-1.2906250000000001,1.1406249999999998
6,2004-10-25,2.5302083333333334,-1.5322916666666666,0.9979166666666668
6,2004-10-26,2.1999999999999997,-1.5072916666666665,0.6927083333333333
6,2004-10-27,1.953125,-1.0822916666666667,0.8708333333333333
6,2004-10-28,1.9458333333333335,-0.6875,1.2583333333333335
6,2004-10-29,1.2333333333333334,-0.9031250000000001,0.3302083333333333
6,2004-10-30,1.9520833333333334,-1.0423913043478261,0.9096920289855073
6,2004-10-31,0.0,-1.05,-1.05
6,2004-11-01,2.027083333333333,-1.0979166666666667,0.9291666666666665
6,2004-11-02,1.9875,-0.990625,0.9968750000000001
6,2004-11-03,2.040625,-0.8885416666666667,1.1520833333333331
6,2004-11-04,1.64375,-0.7302083333333332,0.9135416666666668
6,2004-11-05,1.6322916666666665,-0.821875,0.8104166666666665
6,2004-11-06,1.6864583333333334,-0.728125,0.9583333333333334
6,2004-11-07,1.7635416666666668,-0.665625,1.0979166666666669
6,2004-11-08,1.3520833333333335,-0.4927083333333333,0.8593750000000002
6,2004-11-09,1.6468749999999999,-0.6114583333333333,1.0354166666666664
6,2004-11-10,1.3885416666666668,-0.7541666666666668,0.634375
6,2004-11-11,0.5510416666666667,0.5989583333333334,1.15
6,2004-11-12,0.13229166666666667,0.6854166666666667,0.8177083333333334
6,2004-11-13,0.08854166666666667,0.671875,0.7604166666666666
6,2004-11-14,0.6593749999999999,0.3177083333333333,0.9770833333333333
6,2004-11-15,2.4499999999999997,-2.105208333333333,0.3447916666666666
6,2004-11-16,2.3739583333333334,-2.3979166666666667,-0.023958333333333304
6,2004-11-17,2.2375000000000003,-2.5322916666666666,-0.29479166666666634
6,2004-11-18,2.303125,-2.275,0.028125000000000178
6,2004-11-19,1.125,-0.7645833333333334,0.3604166666666666
6,2004-11-20,0.7385416666666668,0.296875,1.0354166666666669
6,2004-11-21,1.9697916666666666,-1.3687500000000001,0.6010416666666665
6,2004-11-22,2.625,-2.689583333333333,-0.06458333333333321
6,2004-11-23,2.5104166666666665,-2.4614583333333333,0.048958333333333215
6,2004-11-24,2.5208333333333335,-2.7875,-0.2666666666666666
6,2004-11-25,2.566666666666667,-2.6177083333333333,-0.05104166666666643
6,2004-11-26,2.136458333333333,-3.0104166666666665,-0.8739583333333334
6,2004-11-27,1.1322916666666667,-0.8177083333333334,0.3145833333333333
6,2004-11-28,1.7947916666666668,-1.734375,0.060416666666666785
6,2004-11-29,2.43125,-3.076041666666667,-0.6447916666666669
6,2004-11-30,2.30625,-2.5770833333333334,-0.2708333333333335
6,2004-12-01,0.08854166666666667,0.5927083333333333,0.6812499999999999
6,2004-12-02,0.059375000000000004,0.665625,0.725
6,2004-12-03,1.0083333333333333,-1.7072916666666667,-0.6989583333333333
6,2004-12-04,2.285416666666667,-2.2979166666666666,-0.012499999999999734
6,2004-12-05,0.2489583333333333,0.7875,1.0364583333333333
6,2004-12-06,0.08645833333333335,0.6625,0.7489583333333333
6,2004-12-07,1.7864583333333333,-1.7614583333333333,0.02499999999999991
6,2004-12-08,2.502083333333333,-2.8937500000000003,-0.39166666666666705
6,2004-12-09,2.5677083333333335,-3.1437500000000003,-0.5760416666666668
6,2004-12-10,2.6062499999999997,-3.0749999999999997,-0.46875
6,2004-12-11,2.4447916666666667,-3.0385416666666667,-0.59375
6,2004-12-12,2.421875,-2.975,-0.5531250000000001
6,2004-12-13,2.5031250000000003,-3.0583333333333336,-0.5552083333333333
6,2004-12-14,2.5187500000000003,-3.1041666666666665,-0.5854166666666663
6,2004-12-15,2.2125,-3.1041666666666665,-0.8916666666666666
6,2004-12-16,2.620833333333333,-3.030208333333333,-0.4093749999999998
6,2004-12-17,2.5968750000000003,-3.0031250000000003,-0.40625
6,2004-12-18,1.8052083333333335,-2.7770833333333336,-0.971875
6,2004-12-19,2.6197916666666665,-2.890625,-0.2708333333333335
6,2004-12-20,2.670833333333333,-2.954166666666667,-0.2833333333333341
6,2004-12-21,2.6322916666666667,-3.1052083333333336,-0.4729166666666669
6,2004-12-22,2.686458333333333,-3.0875,-0.40104166666666696
6,2004-12-23,2.6614583333333335,-2.936458333333333,-0.27499999999999947
6,2004-12-24,2.566666666666667,-3.0239583333333333,-0.45729166666666643
6,2004-12-25,2.6927083333333335,-2.725,-0.03229166666666661
6,2004-12-26,1.7989583333333332,-2.9010416666666665,-1.1020833333333333
6,2004-12-27,2.0,-2.978125,-0.9781249999999999
6,2004-12-28,2.2729166666666667,-3.0989583333333335,-0.8260416666666668
6,2004-12-29,2.408333333333333,-3.05625,-0.6479166666666667
6,2004-12-30,1.5729166666666667,-3.0187500000000003,-1.4458333333333335
6,2004-12-31,2.3854166666666665,-2.751041666666667,-0.36562500000000053
6,2005-01-01,2.2687500000000003,-2.946875,-0.6781249999999996
6,2005-01-02,2.1843749999999997,-2.986458333333333,-0.8020833333333335
6,2005-01-03,2.7927083333333336,-3.158333333333333,-0.36562499999999964
6,2005-01-04,2.6489583333333333,-3.0749999999999997,-0.42604166666666643
6,2005-01-05,2.1885416666666666,-3.045833333333333,-0.8572916666666663
6,2005-01-06,1.8135416666666666,-3.064583333333333,-1.2510416666666666
6,2005-01-07,1.1645833333333333,-3.0656250000000003,-1.901041666666667
6,2005-01-08,2.040625,-3.03125,-0.9906250000000001
6,2005-01-09,2.191666666666667,-3.076041666666667,-0.8843749999999999
6,2005-01-10,2.2531250000000003,-3.1364583333333336,-0.8833333333333333
6,2005-01-11,1.640625,-3.0354166666666664,-1.3947916666666664
6,2005-01-12,2.388541666666667,-3.0979166666666664,-0.7093749999999996
6,2005-01-13,2.5302083333333334,-3.1604166666666664,-0.630208333333333
6,2005-01-14,2.43125,-3.1145833333333335,-0.6833333333333336
6,2005-01-15,2.103125,-3.0739583333333336,-0.9708333333333337
6,2005-01-16,1.4760416666666665,-2.8333333333333335,-1.357291666666667
6,2005-01-17,2.6166666666666667,-3.1041666666666665,-0.4874999999999998
6,2005-01-18,2.595833333333333,-3.158333333333333,-0.5625
6,2005-01-19,2.6677083333333336,-3.0854166666666667,-0.4177083333333331
6,2005-01-20,2.59375,-3.171875,-0.578125
6,2005-01-21,2.566666666666667,-3.1218749999999997,-0.5552083333333329
6,2005-01-22,2.6395833333333334,-3.014583333333333,-0.37499999999999956
6,2005-01-23,2.5,-2.985416666666667,-0.48541666666666705
6,2005-01-24,2.396875,-3.1364583333333336,-0.7395833333333335
6,2005-01-25,2.9104166666666664,-3.2156249999999997,-0.3052083333333333
6,2005-01-26,2.4406250000000003,-3.1354166666666665,-0.6947916666666663
6,2005-01-27,2.4635416666666665,-3.188541666666667,-0.7250000000000005
6,2005-01-28,1.9229166666666666,-2.9302083333333333,-1.0072916666666667
6,2005-01-29,2.2552083333333335,-3.1593750000000003,-0.9041666666666668
6,2005-01-30,2.6,-3.189583333333333,-0.5895833333333331
6,2005-01-31,2.56875,-3.0552083333333333,-0.4864583333333332
6,2005-02-01,2.627083333333333,-3.1906250000000003,-0.563541666666667
6,2005-02-02,2.5635416666666666,-3.111458333333333,-0.5479166666666666
6,2005-02-03,2.652083333333333,-3.2104166666666667,-0.5583333333333336
6,2005-02-04,2.6437500000000003,-3.015625,-0.37187499999999973
6,2005-02-05,2.5541666666666667,-3.040625,-0.4864583333333332
6,2005-02-06,2.5927083333333334,-3.109375,-0.5166666666666666
6,2005-02-07,2.5854166666666667,-3.0427083333333336,-0.4572916666666669
6,2005-02-08,2.6218749999999997,-3.103125,-0.4812500000000002
6,2005-02-09,2.636458333333333,-3.1677083333333336,-0.5312500000000004
6,2005-02-10,2.435416666666667,-3.063541666666667,-0.6281250000000003
6,2005-02-11,2.6062499999999997,-3.1333333333333333,-0.5270833333333336
6,2005-02-12,2.5552083333333333,-3.2583333333333333,-0.703125
6,2005-02-13,2.4364583333333334,-3.204166666666667,-0.7677083333333337
6,2005-02-14,2.6354166666666665,-3.158333333333333,-0.5229166666666667
6,2005-02-15,2.736458333333333,-3.1843749999999997,-0.4479166666666665
6,2005-02-16,2.576041666666667,-2.94375,-0.3677083333333333
6,2005-02-17,2.580208333333333,-3.233333333333333,-0.6531249999999997
6,2005-02-18,3.1291666666666664,-3.3625000000000003,-0.23333333333333384
6,2005-02-19,2.4739583333333335,-3.1062499999999997,-0.6322916666666663
6,2005-02-20,2.6218749999999997,-3.178125,-0.5562500000000004
6,2005-02-21,2.6197916666666665,-3.216666666666667,-0.5968750000000003
6,2005-02-22,2.558333333333333,-3.1677083333333336,-0.6093750000000004
6,2005-02-23,2.6437500000000003,-3.203125,-0.5593749999999997
6,2005-02-24,2.6104166666666666,-3.173958333333333,-0.5635416666666666
6,2005-02-25,2.5697916666666667,-3.157291666666667,-0.5875000000000004
6,2005-02-26,2.605208333333333,-3.225,-0.619791666666667
6,2005-02-27,2.6,-3.0989583333333335,-0.4989583333333334
6,2005-02-28,2.5875,-2.9895833333333335,-0.40208333333333357
6,2005-03-01,2.6177083333333333,-3.1979166666666665,-0.5802083333333332
6,2005-03-02,2.4322916666666665,-3.111458333333333,-0.6791666666666667
6,2005-03-03,2.625,-3.18125,-0.5562499999999999
6,2005-03-04,2.6177083333333333,-3.1760416666666664,-0.5583333333333331
6,2005-03-05,2.611458333333333,-3.1322916666666667,-0.5208333333333335
6,2005-03-06,2.613541666666667,-3.170833333333333,-0.5572916666666661
6,2005-03-07,2.4375,-3.092708333333333,-0.655208333333333
6,2005-03-08,2.63125,-3.0833333333333335,-0.4520833333333334
6,2005-03-09,2.5656250000000003,-3.084375,-0.5187499999999998
6,2005-03-10,2.480208333333333,-3.110416666666667,-0.6302083333333339
6,2005-03-11,2.611458333333333,-3.1302083333333335,-0.5187500000000003
6,2005-03-12,2.5437499999999997,-2.9427083333333335,-0.39895833333333375
6,2005-03-13,2.6760416666666664,-3.2552083333333335,-0.579166666666667
6,2005-03-14,2.951041666666667,-3.1906250000000003,-0.23958333333333348
6,2005-03-15,3.9447916666666667,-3.189583333333333,0.7552083333333335
6,2005-03-16,3.9260416666666664,-3.2687500000000003,0.6572916666666662
6,2005-03-17,3.9406250000000003,-3.266666666666667,0.6739583333333332
6,2005-03-18,3.935416666666667,-3.2781249999999997,0.657291666666667
6,2005-03-19,3.4010416666666665,-2.9291666666666667,0.4718749999999998
6,2005-03-20,4.0,-2.6999999999999997,1.3000000000000003
6,2005-03-21,3.3156250000000003,-2.8874999999999997,0.42812500000000053
6,2005-03-22,2.4187499999999997,-3.15625,-0.7375000000000003
6,2005-03-23,2.125,-3.1374999999999997,-1.0124999999999997
6,2005-03-24,2.2822916666666666,-3.154166666666667,-0.8718750000000002
6,2005-03-25,2.3072916666666665,-3.1843749999999997,-0.8770833333333332
6,2005-03-26,2.3781250000000003,-3.169791666666667,-0.7916666666666665
6,2005-03-27,2.4,-3.1677083333333336,-0.7677083333333337
6,2005-03-28,2.740625,-3.1875,-0.4468749999999999
6,2005-03-29,3.134375,-3.202083333333333,-0.06770833333333304
6,2005-03-30,2.9416666666666664,-3.092708333333333,-0.15104166666666652
6,2005-03-31,2.904166666666667,-3.0822916666666664,-0.17812499999999964
6,2005-04-01,2.665625,-3.1645833333333333,-0.4989583333333334
6,2005-04-02,2.519791666666667,-3.095833333333333,-0.5760416666666663
6,2005-04-03,2.1531249999999997,-3.084375,-0.9312500000000004
6,2005-04-04,2.540625,-3.030208333333333,-0.48958333333333304
6,2005-04-05,2.7697916666666664,-3.1135416666666664,-0.34375
6,2005-04-06,2.7916666666666665,-3.2583333333333333,-0.4666666666666668
6,2005-04-07,2.9187499999999997,-3.1604166666666664,-0.2416666666666667
6,2005-04-08,2.5260416666666665,-2.9489583333333336,-0.42291666666666705
6,2005-04-09,2.6645833333333333,-2.9791666666666665,-0.3145833333333332
6,2005-04-10,2.4322916666666665,-3.0708333333333333,-0.6385416666666668
6,2005-04-11,3.0510416666666664,-3.170833333333333,-0.11979166666666652
6,2005-04-12,3.091666666666667,-3.126041666666667,-0.034375000000000266
6,2005-04-13,3.076041666666667,-3.1520833333333336,-0.07604166666666679
6,2005-04-14,3.078125,-3.15,-0.07187499999999991
6,2005-04-15,2.105208333333333,-2.115625,-0.010416666666666963
6,2005-04-16,3.1479166666666667,-3.185416666666667,-0.03750000000000009
6,2005-04-17,3.279166666666667,-3.2135416666666665,0.06562500000000027
6,2005-04-18,3.2916666666666665,-3.1906250000000003,0.10104166666666625
6,2005-04-19,3.2468749999999997,-3.1510416666666665,0.09583333333333321
6,2005-04-20,3.40625,-3.232291666666667,0.17395833333333321
6,2005-04-21,3.2760416666666665,-3.2218750000000003,0.05416666666666625
6,2005-04-22,3.0697916666666667,-3.2291666666666665,-0.15937499999999982
6,2005-04-23,2.889583333333333,-2.997916666666667,-0.10833333333333384
6,2005-04-24,3.044791666666667,-3.1281250000000003,-0.08333333333333348
6,2005-04-25,3.061458333333333,-3.1604166666666664,-0.09895833333333348
6,2005-04-26,3.079166666666667,-3.1802083333333333,-0.10104166666666625
6,2005-04-27,3.2427083333333333,-3.171875,0.0708333333333333
6,2005-04-28,2.654166666666667,-2.9499999999999997,-0.29583333333333295
6,2005-04-29,2.9458333333333333,-3.2125,-0.2666666666666666
6,2005-04-30,3.040625,-3.2302083333333336,-0.18958333333333366
6,2005-05-01,3.275,-3.139583333333333,0.13541666666666696
6,2005-05-02,2.984375,-3.0114583333333336,-0.02708333333333357
6,2005-05-03,0.8145833333333333,-0.7083333333333334,0.10624999999999996
6,2005-05-04,0.04791666666666666,0.17173913043478262,0.21965579710144928
6,2005-05-05,0.0,,0.0
6,2005-05-06,0.0,,0.0
6,2005-05-07,0.0,,0.0
6,2005-05-08,0.0,,0.0
6,2005-05-09,0.0,,0.0
6,2005-05-10,0.0,,0.0
6,2005-05-11,0.0,,0.0
6,2005-05-12,0.0,,0.0
6,2005-05-13,0.0,,0.0
6,2005-05-14,0.0,,0.0
6,2005-05-15,0.0,,0.0
6,2005-05-16,0.0,,0.0
6,2005-05-17,0.0,,0.0
6,2005-05-18,0.0,,0.0
6,2005-05-19,0.0,,0.0
6,2005-05-20,0.0,,0.0
6,2005-05-21,0.0,,0.0
6,2005-05-22,0.0,,0.0
6,2005-05-23,0.0,,0.0
6,2005-05-24,0.0,,0.0
6,2005-05-25,0.0,,0.0
6,2005-05-26,0.0,,0.0
6,2005-05-27,0.0,,0.0
6,2005-05-28,0.0,,0.0
6,2005-05-29,0.0,,0.0
6,2005-05-30,0.0,,0.0
6,2005-05-31,0.0,,0.0
